Butte, MT

1:46 PM MDT on May 26, 2017 (GMT -0600)
Mooney

Weather History for KBTM - August, 2012

Change the Weather History Date:

Tuesday, August 7, 2012

  Actual Average Record
Temperature  
Mean Temperature 67 °F 64 °F  
Max Temperature 89 °F 82 °F 96 °F (1983)
Min Temperature 45 °F 46 °F 33 °F (1946)
Degree Days  
Heating Degree Days 0 3  
Month to date heating degree days 13 15  
Since 1 June heating degree days 306 402  
Since 1 July heating degree days 33 115  
Cooling Degree Days 2 1  
Month to date cooling degree days 6 9  
Year to date cooling degree days 100 60  
Since 1 June cooling degree days 100 60  
Growing Degree Days 17 (Base 50)    
Moisture  
Dew Point 37 °F    
Average Humidity 44    
Maximum Humidity 76    
Minimum Humidity 12    
Precipitation  
Precipitation 0.00 in 0.05 in 0.51 in (2009)
Month to date precipitation T 0.29  
Year to date precipitation 7.15 8.81  
Sea Level Pressure  
Sea Level Pressure 30.14 in    
Wind  
Wind Speed 3 mph (East)    
Max Wind Speed 14 mph    
Max Gust Speed 17 mph    
Visibility 10 miles    
Events      
T = Trace of Precipitation, MM = Missing Value Source: NWS Daily Summary

Daily Weather History Graph

Daily Weather History Graph

Search for Another Location

Airport or City:

Trip Planner

Search our weather history database for the weather conditions in past years. The results will help you decide how hot, cold, wet, or windy it might be!

Date:

Astronomy

Aug. 07, 2012 Rise Set
Actual Time 6:20 AM MDT 8:50 PM MDT
Civil Twilight 5:46 AM MDT 9:23 PM MDT
Nautical Twilight 5:04 AM MDT 10:05 PM MDT
Astronomical Twilight 4:16 AM MDT 10:53 PM MDT
Moon 11:07 PM MDT (8/7) 12:35 PM MDT (8/7)
Length of Visible Light 15h 36m
Length of Day
14h 29m
Waning Gibbous, 69% of the Moon is Illuminated
Aug 7
Waning Gibbous
Aug 9
Last Quarter
Aug 17
New
Aug 24
First Quarter
Aug 31
Full

Hourly Weather History & Observations

Time (MDT) Temp. Dew Point Humidity Pressure Visibility Wind Dir Wind Speed Gust Speed Precip Events Conditions
12:53 AM 53.1 °F 41.0 °F 64% 30.19 in 10.0 mi Calm Calm - N/A   Clear
1:53 AM 52.0 °F 41.0 °F 66% 30.19 in 10.0 mi Calm Calm - N/A   Clear
2:53 AM 48.9 °F 39.9 °F 71% 30.19 in 10.0 mi SE 5.8 mph - N/A   Clear
3:53 AM 48.9 °F 39.9 °F 71% 30.18 in 10.0 mi Calm Calm - N/A   Clear
4:53 AM 46.9 °F 39.0 °F 74% 30.19 in 10.0 mi SE 3.5 mph - N/A   Clear
5:53 AM 46.9 °F 39.0 °F 74% 30.20 in 10.0 mi SSE 3.5 mph - N/A   Clear
6:53 AM 46.0 °F 39.0 °F 76% 30.21 in 10.0 mi Calm Calm - N/A   Clear
7:53 AM 51.1 °F 41.0 °F 68% 30.21 in 10.0 mi Calm Calm - N/A   Clear
8:53 AM 59.0 °F 42.1 °F 53% 30.19 in 10.0 mi Calm Calm - N/A   Clear
9:53 AM 66.9 °F 43.0 °F 42% 30.20 in 10.0 mi Calm Calm - N/A   Clear
10:53 AM 73.9 °F 44.1 °F 34% 30.17 in 10.0 mi Calm Calm - N/A   Clear
11:53 AM 80.1 °F 39.9 °F 24% 30.16 in 10.0 mi Variable 3.5 mph - N/A   Clear
12:53 PM 82.9 °F 37.9 °F 20% 30.14 in 10.0 mi Variable 6.9 mph - N/A   Clear
1:53 PM 84.9 °F 34.0 °F 16% 30.12 in 10.0 mi Variable 3.5 mph - N/A   Clear
2:53 PM 86.0 °F 34.0 °F 16% 30.11 in 10.0 mi NW 11.5 mph - N/A   Partly Cloudy
3:53 PM 87.1 °F 33.1 °F 15% 30.10 in 10.0 mi East 4.6 mph - N/A   Clear
4:53 PM 88.0 °F 32.0 °F 14% 30.07 in 10.0 mi Variable 3.5 mph - N/A   Clear
5:53 PM 87.1 °F 28.9 °F 12% 30.08 in 10.0 mi NW 4.6 mph - N/A   Clear
6:53 PM 87.1 °F 30.0 °F 13% 30.07 in 10.0 mi NW 6.9 mph - N/A   Clear
7:53 PM 84.9 °F 30.9 °F 14% 30.07 in 10.0 mi North 5.8 mph - N/A   Clear
8:53 PM 77.0 °F 37.0 °F 24% 30.08 in 10.0 mi Calm Calm - N/A   Clear
9:53 PM 70.0 °F 39.0 °F 32% 30.09 in 10.0 mi East 4.6 mph - N/A   Clear
10:53 PM 68.0 °F 36.0 °F 31% 30.09 in 10.0 mi ESE 4.6 mph - N/A   Clear
11:53 PM 63.0 °F 36.0 °F 37% 30.09 in 10.0 mi ESE 3.5 mph - N/A   Clear